RS-39
1 38051U 11062C   13038.80415978  .00010145  00000-0  36557-3 0  1503
2 38051 051.6369 113.2461 0012470 156.6072 307.5229 15.29076397 57962
E-STAR
1 38079U 12006C   13038.65213194  .00029744  31778-5  66156-3 0  8748
2 38079 069.4836 130.1302 0667672 306.4372 047.7057 14.33650099 51101
GOLIAT
1 38085U 12006J   13038.35678094  .00024390  31233-5  54710-3 0  8118
2 38085 069.4885 132.1405 0674916 307.4922 046.6632 14.32073562 51020
HORYU-2
1 38340U 12025D   13037.88943959  .00000960  00000-0  16619-3 0  3598
2 38340 098.2018 344.5550 0011943 309.6610 050.3556 14.70598151 38968
RS-40
1 38736U 12041D   13038.08150391  .00000010  00000-0  00000 0 0  1810
2 38736 082.4728 236.2549 0018020 253.1356 106.7750 12.42650453 24089
PROITERES
1 38756U 12047B   13038.80995429  .00000339  00000-0  59512-4 0  4866
2 38756 098.2667 113.4250 0012999 154.1621 206.0225 14.74068720 22331
AENEAS
1 38760U 0        13010.30862094  .00004933  00000-0  45118-3 0 00386
2 38760 064.6736 037.6222 0216021 256.7016 100.9927 14.80037176005582
CSSWE-D
1 38761U 0        13010.31251606  .00004126  00000-0  38000-3 0 00352
2 38761 064.6743 037.6425 0217594 256.6983 100.9785 14.79845475005606
CXBN-E
1 38762U 0        13010.30523402  .00005383  00000-0  48699-3 0 00360
2 38762 064.6804 037.6257 0218357 256.1531 101.5196 14.79997447005677
OBJECT F
1 38763U 0        13010.30916126  .00003917  00000-0  36085-3 0 00356
2 38763 064.6735 037.6208 0218061 256.7365 100.9342 14.79862223005613
CINEMA-G
1 38764U 0        13010.30690144  .00004197  00000-0  38547-3 0 00341
2 38764 064.6741 037.6060 0217613 256.7942 100.8813 14.79914111005571
CP5
1 38765U 0        13010.36660122  .00005184  00000-0  47138-3 0 00366
2 38765 064.6738 037.3618 0216618 256.5143 101.1776 14.80096794005582
RAIKO
1 38852U 98067CN  13038.78392809  .00036165  00000-0  43472-3 0  1364
2 38852 051.6464 027.1655 0012655 235.6713 124.3078 15.60407172 19576
FITSAT 1
1 38853U 98067CP  13038.39197911  .00045968  00000-0  51284-3 0  1348
2 38853 051.6463 028.3077 0008797 257.9371 102.0633 15.62281612 19577
TechEdSat
1 38854U 98067CQ  13038.22724450  .00078477  00000-0  71668-3 0  1513
2 38854 051.6437 027.1944 0006760 251.0066 109.0197 15.67127980 19577
F 1
1 38855U 98067CR  13038.18262511  .00075103  00000-0  70236-3 0  1539
2 38855 051.6438 027.6228 0006973 271.2179 088.7995 15.66555528 19452
WeWish
1 38856U 98067CS  13038.18814099  .00230044  00000-0  11608-2 0  1729
2 38856 051.6382 023.1301 0002570 234.3259 125.7490 15.80405143 19514
